Time,TemperatureF,DewpointF,PressureIn,WindDirection,WindDirectionDegrees,WindSpeedMPH,WindSpeedGustMPH,Humidity,HourlyPrecipIn,Conditions,Clouds,dailyrainin,SoftwareType,DateUTC
2013-05-07 00:00:00,59.0,-99.9,-100.00,NNW,334,2.0,4.0,-999,0.00,,,0.00,,2013-05-07 05:00:00,
2013-05-07 00:43:00,59.0,-99.9,-100.00,NNW,334,2.0,4.0,-999,0.00,,,0.00,,2013-05-07 05:43:00,
2013-05-07 00:52:00,59.0,-99.9,-100.00,NNW,334,2.0,4.0,-999,0.00,,,0.00,,2013-05-07 05:52:00,
2013-05-07 01:00:00,57.0,-99.9,-100.00,NNW,338,2.0,4.0,-999,0.00,,,0.00,,2013-05-07 06:00:00,
2013-05-07 01:42:00,57.0,-99.9,-100.00,NNW,338,2.0,4.0,-999,0.00,,,0.00,,2013-05-07 06:42:00,
2013-05-07 01:52:00,57.0,-99.9,-100.00,NNW,338,2.0,4.0,-999,0.00,,,0.00,,2013-05-07 06:52:00,
2013-05-07 02:00:00,55.0,-99.9,-100.00,NNW,330,2.0,5.0,-999,0.00,,,0.00,,2013-05-07 07:00:00,
2013-05-07 02:43:00,55.0,-99.9,-100.00,NNW,330,2.0,5.0,-999,0.00,,,0.00,,2013-05-07 07:43:00,
2013-05-07 02:53:00,55.0,-99.9,-100.00,NNW,330,2.0,5.0,-999,0.00,,,0.00,,2013-05-07 07:53:00,
2013-05-07 03:00:00,54.0,-99.9,-100.00,NNW,336,2.0,4.0,-999,0.00,,,0.00,,2013-05-07 08:00:00,
2013-05-07 03:42:00,54.0,-99.9,-100.00,NNW,336,2.0,4.0,-999,0.00,,,0.00,,2013-05-07 08:42:00,
2013-05-07 03:52:00,54.0,-99.9,-100.00,NNW,336,2.0,4.0,-999,0.00,,,0.00,,2013-05-07 08:52:00,
2013-05-07 04:00:00,53.0,-99.9,-100.00,NW,313,2.0,3.0,-999,0.00,,,0.00,,2013-05-07 09:00:00,
2013-05-07 04:43:00,53.0,-99.9,-100.00,NW,313,2.0,3.0,-999,0.00,,,0.00,,2013-05-07 09:43:00,
2013-05-07 04:53:00,53.0,-99.9,-100.00,NW,313,2.0,3.0,-999,0.00,,,0.00,,2013-05-07 09:53:00,
2013-05-07 05:00:00,53.0,-99.9,-100.00,NW,311,2.0,3.0,-999,0.00,,,0.00,,2013-05-07 10:00:00,
2013-05-07 05:33:00,53.0,-99.9,-100.00,NW,311,2.0,3.0,-999,0.00,,,0.00,,2013-05-07 10:33:00,
2013-05-07 05:42:00,53.0,-99.9,-100.00,NW,311,2.0,3.0,-999,0.00,,,0.00,,2013-05-07 10:42:00,
2013-05-07 05:52:00,53.0,-99.9,-100.00,NW,311,2.0,3.0,-999,0.00,,,0.00,,2013-05-07 10:52:00,
2013-05-07 06:00:00,52.0,-99.9,-100.00,NW,319,2.0,3.0,-999,0.00,,,0.00,,2013-05-07 11:00:00,
2013-05-07 06:42:00,52.0,-99.9,-100.00,NW,319,2.0,3.0,-999,0.00,,,0.00,,2013-05-07 11:42:00,
2013-05-07 06:52:00,52.0,-99.9,-100.00,NW,319,2.0,3.0,-999,0.00,,,0.00,,2013-05-07 11:52:00,
2013-05-07 07:00:00,53.0,-99.9,-100.00,NW,326,2.0,4.0,-999,0.00,,,-99.99,,2013-05-07 12:00:00,
2013-05-07 07:42:00,53.0,-99.9,-100.00,NW,326,2.0,4.0,-999,0.00,,,-99.99,,2013-05-07 12:42:00,
2013-05-07 07:52:00,53.0,-99.9,-100.00,NW,326,2.0,4.0,-999,0.00,,,-99.99,,2013-05-07 12:52:00,
2013-05-07 08:00:00,56.0,-99.9,-100.00,NW,313,3.0,5.0,-999,0.00,,,0.00,,2013-05-07 13:00:00,
2013-05-07 08:42:00,56.0,-99.9,-100.00,NW,313,3.0,5.0,-999,0.00,,,0.00,,2013-05-07 13:42:00,
2013-05-07 08:52:00,56.0,-99.9,-100.00,NW,313,3.0,5.0,-999,0.00,,,0.00,,2013-05-07 13:52:00,
2013-05-07 09:00:00,61.0,-99.9,-100.00,NNW,335,3.0,6.0,-999,0.00,,,0.00,,2013-05-07 14:00:00,
2013-05-07 09:42:00,61.0,-99.9,-100.00,NNW,335,3.0,6.0,-999,0.00,,,0.00,,2013-05-07 14:42:00,
2013-05-07 09:52:00,61.0,-99.9,-100.00,NNW,335,3.0,6.0,-999,0.00,,,0.00,,2013-05-07 14:52:00,
2013-05-07 10:00:00,66.0,-99.9,-100.00,North,4,3.0,4.0,-999,0.00,,,0.00,,2013-05-07 15:00:00,
2013-05-07 10:43:00,66.0,-99.9,-100.00,North,4,3.0,4.0,-999,0.00,,,0.00,,2013-05-07 15:43:00,
2013-05-07 10:53:00,66.0,-99.9,-100.00,North,4,3.0,4.0,-999,0.00,,,0.00,,2013-05-07 15:53:00,
2013-05-07 11:00:00,69.0,-99.9,-100.00,North,359,4.0,6.0,-999,0.00,,,0.00,,2013-05-07 16:00:00,
2013-05-07 11:52:00,69.0,-99.9,-100.00,North,359,4.0,6.0,-999,0.00,,,0.00,,2013-05-07 16:52:00,
2013-05-07 13:00:00,74.0,-99.9,-100.00,NNW,337,4.0,8.0,-999,0.00,,,0.00,,2013-05-07 18:00:00,
2013-05-07 13:42:00,74.0,-99.9,-100.00,NNW,337,4.0,8.0,-999,0.00,,,0.00,,2013-05-07 18:42:00,
2013-05-07 13:52:00,74.0,-99.9,-100.00,NNW,337,4.0,8.0,-999,0.00,,,0.00,,2013-05-07 18:52:00,
2013-05-07 15:00:00,75.0,-99.9,-100.00,WSW,237,2.0,8.0,-999,0.00,,,0.00,,2013-05-07 20:00:00,
2013-05-07 15:42:00,75.0,-99.9,-100.00,WSW,237,2.0,8.0,-999,0.00,,,0.00,,2013-05-07 20:42:00,
2013-05-07 15:52:00,75.0,-99.9,-100.00,WSW,237,2.0,8.0,-999,0.00,,,0.00,,2013-05-07 20:52:00,
2013-05-07 16:00:00,77.0,-99.9,-100.00,North,2,3.0,6.0,-999,0.00,,,0.00,,2013-05-07 21:00:00,
2013-05-07 16:43:00,77.0,-99.9,-100.00,North,2,3.0,6.0,-999,0.00,,,0.00,,2013-05-07 21:43:00,
2013-05-07 16:53:00,77.0,-99.9,-100.00,North,2,3.0,6.0,-999,0.00,,,0.00,,2013-05-07 21:53:00,
2013-05-07 17:00:00,75.0,-99.9,-100.00,North,358,1.0,6.0,-999,0.00,,,0.00,,2013-05-07 22:00:00,
2013-05-07 17:42:00,75.0,-99.9,-100.00,North,358,1.0,6.0,-999,0.00,,,0.00,,2013-05-07 22:42:00,
2013-05-07 17:52:00,75.0,-99.9,-100.00,North,358,1.0,6.0,-999,0.00,,,0.00,,2013-05-07 22:52:00,
2013-05-07 18:00:00,76.0,-99.9,-100.00,North,4,3.0,7.0,-999,0.00,,,0.00,,2013-05-07 23:00:00,
2013-05-07 18:42:00,76.0,-99.9,-100.00,North,4,3.0,7.0,-999,0.00,,,0.00,,2013-05-07 23:42:00,
2013-05-07 18:52:00,76.0,-99.9,-100.00,North,4,3.0,7.0,-999,0.00,,,0.00,,2013-05-07 23:52:00,
2013-05-07 19:00:00,74.0,-99.9,-100.00,North,354,3.0,5.0,-999,0.00,,,0.00,,2013-05-08 00:00:00,
2013-05-07 19:42:00,74.0,-99.9,-100.00,North,354,3.0,5.0,-999,0.00,,,0.00,,2013-05-08 00:42:00,
2013-05-07 19:52:00,74.0,-99.9,-100.00,North,354,3.0,5.0,-999,0.00,,,0.00,,2013-05-08 00:52:00,
2013-05-07 20:00:00,73.0,-99.9,-100.00,NNE,29,1.0,2.0,-999,0.00,,,0.00,,2013-05-08 01:00:00,
2013-05-07 20:42:00,73.0,-99.9,-100.00,NNE,29,1.0,2.0,-999,0.00,,,0.00,,2013-05-08 01:42:00,
2013-05-07 20:52:00,73.0,-99.9,-100.00,NNE,29,1.0,2.0,-999,0.00,,,0.00,,2013-05-08 01:52:00,
2013-05-07 21:00:00,70.0,-99.9,-100.00,SSE,159,2.0,2.0,-999,0.00,,,0.00,,2013-05-08 02:00:00,
2013-05-07 21:32:00,70.0,-99.9,-100.00,SSE,159,2.0,2.0,-999,0.00,,,0.00,,2013-05-08 02:32:00,
2013-05-07 21:42:00,70.0,-99.9,-100.00,SSE,159,2.0,2.0,-999,0.00,,,0.00,,2013-05-08 02:42:00,
2013-05-07 21:52:00,70.0,-99.9,-100.00,SSE,159,2.0,2.0,-999,0.00,,,0.00,,2013-05-08 02:52:00,
2013-05-07 22:00:00,66.0,-99.9,-100.00,South,172,1.0,4.0,-999,0.00,,,0.00,,2013-05-08 03:00:00,
2013-05-07 22:43:00,66.0,-99.9,-100.00,South,172,1.0,4.0,-999,0.00,,,0.00,,2013-05-08 03:43:00,
2013-05-07 22:53:00,66.0,-99.9,-100.00,South,172,1.0,4.0,-999,0.00,,,0.00,,2013-05-08 03:53:00,
2013-05-07 23:00:00,65.0,-99.9,-100.00,South,170,2.0,4.0,-999,0.00,,,0.00,,2013-05-08 04:00:00,
2013-05-07 23:43:00,65.0,-99.9,-100.00,South,170,2.0,4.0,-999,0.00,,,0.00,,2013-05-08 04:43:00,
2013-05-07 23:53:00,65.0,-99.9,-100.00,South,170,2.0,4.0,-999,0.00,,,0.00,,2013-05-08 04:53:00,